Dewpoint
49 49 49 49 49 49 47 43 35 40 48 38 37 32 32 29 28 26 23 25 30 19 27 26 21 22 22 23 25 24 25 26 26 26 25 25 25 27 28 28 26 26 27 24
49 49 49 49 49 49 45 38 38 47 47 31 33 33 29 22 25 24 23 27 31 29 29 29 27 23 25 26 27 29 27 24 24 23 26 27 27 27 26 29 28 26 32 25
47 47 48 49 49 49 46 39 33 40 42 35 31 30 28 24 26 25 23 28 28 28 33 31 29 26 29 29 28 38 36 26 25 23 22 23 24 23 22 25 31 27 23 21
45 46 47 48 48 49 45 39 35 36 33 35 31 29 24 20 20 27 26 27 32 27 26 28 29 31 34 32 36 32 34 26 24 21 20 19 19 20 20 20 23 25 24 20
46 46 45 47 48 49 43 34 34 36 33 36 31 30 25 21 18 23 26 28 34 31 27 27 29 32 30 29 33 31 31 28 27 22 20 19 17 16 16 15 18 20 20 19
46 46 45 47 48 48 41 41 35 34 31 34 31 30 27 22 21 24 21 25 27 32 29 38 39 37 37 36 35 31 33 32 27 26 22 22 27 21 18 17 18 20 21 22
46 46 45 46 47 47 42 43 34 35 30 35 30 28 27 23 20 24 22 22 26 30 37 37 37 35 31 36 36 35 34 31 31 32 33 28 24 23 22 22 21 20 21 21
46 45 45 45 48 47 43 40 38 37 36 28 30 28 27 25 25 27 24 23 25 31 35 33 30 33 31 32 36 33 35 36 35 34 30 24 21 24 24 23 21 20 21 23
46 46 46 45 45 47 45 43 42 42 36 30 28 27 28 26 28 29 31 30 36 37 37 33 26 21 18 17 28 34 31 37 38 35 29 28 28 24 25 24 28 23 23 24
45 45 46 45 46 47 45 45 45 44 36 30 31 31 30 28 30 33 33 35 38 38 38 37 29 25 18 18 30 37 36 38 38 36 33 28 25 24 26 28 30 27 25 24
46 46 45 45 46 47 45 43 45 45 40 37 36 37 37 31 31 31 34 33 38 39 36 34 29 33 27 24 22 35 35 34 38 37 35 33 33 29 28 32 35 32 31 30
45 46 45 44 45 46 45 42 46 47 42 41 43 43 43 41 35 32 35 38 36 34 32 34 33 40 41 29 29 24 33 36 36 33 33 37 36 35 33 32 32 36 34 32
45 45 44 45 46 46 46 47 47 45 41 40 40 39 41 43 44 43 38 37 36 35 37 32 37 37 34 39 34 29 31 33 36 35 34 33 36 35 34 35 35 35 35 33
45 44 44 45 45 46 44 42 44 42 40 37 36 38 36 41 44 45 45 44 41 39 36 40 42 40 29 37 31 30 29 29 32 32 31 31 32 37 39 35 36 35 34 34
45 45 45 45 46 44 44 44 45 43 33 35 33 37 35 38 42 43 43 44 44 38 39 44 39 33 30 36 38 33 28 32 36 35 29 39 38 37 39 37 37 38 36 35
46 45 46 45 43 43 43 38 44 40 38 33 34 40 35 35 40 43 42 44 43 39 38 42 35 32 35 42 35 27 25 29 33 33 35 40 42 38 38 38 38 38 37 36
45 45 44 44 42 40 40 36 37 40 37 34 33 35 37 37 37 40 42 44 41 43 42 42 39 37 39 44 37 25 26 34 35 36 40 38 37 36 38 39 38 39 37 37
44 43 44 44 44 42 41 42 41 39 34 35 31 35 37 38 38 37 43 44 44 42 40 40 40 40 44 38 32 33 32 34 38 40 40 40 38 37 37 38 38 37 36 37
43 42 41 40 37 37 43 44 44 43 38 34 35 33 34 42 38 41 42 43 40 41 42 40 39 39 37 37 38 38 40 40 40 39 38 37 37 36 36 36 36 36 36 37
40 38 35 34 40 45 42 41 38 39 40 39 36 38 36 41 41 40 40 40 40 37 41 42 41 38 38 37 39 40 40 39 39 39 38 38 38 37 36 36 36 36 36 36
37 37 37 41 44 41 39 34 34 34 34 37 37 37 37 41 38 38 42 35 38 36 38 39 38 34 31 35 37 39 40 40 39 39 39 39 38 38 37 37 37 37 36 35
40 39 39 38 38 37 34 33 35 35 32 38 37 37 37 42 43 37 39 37 36 33 37 35 28 30 31 34 34 35 37 37 37 37 37 38 37 37 37 36 35 33 32 31
43 38 35 35 35 30 30 28 32 33 35 35 37 37 41 41 39 35 36 34 33 34 33 29 29 32 31 34 35 34 34 33 33 32 31 31 31 32 31 30 31 30 29 29
37 35 31 32 29 28 28 28 31 33 33 34 34 36 37 35 33 32 33 33 35 32 29 25 28 30 33 34 34 32 31 31 31 30 30 29 29 29 30 31 31 30 29 29
31 30 26 28 31 29 31 32 33 33 33 33 34 35 35 34 32 33 34 31 25 24 23 26 28 31 33 32 32 31 31 31 31 31 30 29 29 29 28 29 29 28 27 26
25 23 25 26 28 25 26 26 29 32 33 33 34 33 30 29 29 26 25 22 19 22 25 27 29 31 31 31 31 31 31 31 30 29 28 28 27 27 27 27 27 27 26 25
24 24 25 25 24 23 25 26 27 31 33 31 30 25 24 29 23 18 20 19 22 25 25 26 27 28 29 30 30 30 29 29 28 28 28 28 28 27 25 23 24 23 23 24
Lifted_Index
6 6 6 6 6 6 6 7 6 6 5 4 4 5 5 4 3 3 3 3 2 1 0 1 1 2 2 2 2 1 1 1 1 1 1 1 -0 -1 -1 -2 -2 -1 -1 -1
6 6 6 5 5 5 6 6 6 5 4 4 5 5 5 5 3 3 3 2 1 -0 -0 0 1 1 2 2 2 1 1 1 1 1 1 1 0 -1 -1 -2 -2 -1 -1 -1
6 5 5 4 4 4 5 5 5 4 4 4 5 5 5 5 3 3 2 2 0 -1 -1 -1 -0 1 1 2 1 0 0 1 1 1 0 0 0 -1 -1 -2 -2 -1 -1 -0
5 4 4 3 3 3 4 4 4 4 4 4 4 5 5 4 3 2 2 1 -0 -1 -1 -1 -1 -0 1 1 1 0 0 1 1 1 0 -0 -0 -1 -1 -1 -1 -1 -1 -1
4 3 3 2 2 2 3 3 3 3 3 3 4 4 4 4 3 2 2 1 -0 -1 -1 -2 -1 -1 0 1 0 -0 -0 0 1 1 1 -0 -0 -0 -0 -1 -1 -1 -1 -1
3 3 2 2 1 1 2 2 1 1 2 2 3 3 4 4 3 3 2 1 0 -1 -1 -1 -1 -0 0 0 0 -0 -1 -0 0 1 1 1 1 1 1 0 0 0 0 -0
2 2 2 2 1 1 1 2 1 0 1 2 2 3 3 3 2 2 2 1 0 -0 -1 -1 -0 0 1 1 1 0 -1 -1 -1 0 1 1 2 2 1 1 1 1 0 0
0 1 2 2 1 1 1 1 1 -0 0 1 2 2 3 2 1 1 0 -0 -0 -1 -1 -1 -0 1 1 2 2 1 -0 -1 -1 -0 1 1 2 1 1 1 1 1 0 0
0 1 1 2 2 1 1 1 0 -0 0 1 1 2 2 2 1 -0 -1 -1 -1 -1 -1 -1 -1 1 2 2 2 1 0 -1 -1 -1 0 1 1 1 1 0 0 0 0 0
1 1 2 2 2 2 2 1 0 0 0 1 1 1 1 1 1 -0 -1 -1 -1 -1 -1 -1 -1 -0 1 2 2 1 0 -0 -1 -1 -0 1 1 1 0 -0 -0 -0 -0 0
1 2 2 2 2 2 2 2 1 0 0 1 1 0 1 1 1 -0 -1 -1 -1 -0 -0 -1 -1 -1 -1 0 1 1 0 -0 -1 -1 -1 -0 0 0 -0 -1 -1 -1 -1 0
2 2 2 2 2 2 2 1 1 1 1 1 0 0 1 1 0 -1 -1 -1 -1 -0 -0 -1 -1 -2 -1 -0 -0 0 0 -0 -1 -1 -1 -1 -1 -1 -1 -1 -1 -1 -1 -0
1 2 2 2 2 2 2 1 1 1 1 1 1 1 1 1 0 -1 -2 -1 -1 -1 -0 -1 -2 -2 -1 -1 -1 -0 0 0 -0 -1 -1 -1 -1 -1 -1 -1 -1 -1 -0 0
1 1 2 2 3 3 2 2 1 2 1 1 2 2 3 2 0 -1 -1 -1 -1 -1 -1 -1 -1 -1 -1 -1 -1 0 1 0 -0 -0 -0 -1 -1 -1 -1 -1 -1 -0 0 1
2 2 2 3 3 3 3 3 2 2 2 2 3 3 3 2 1 -0 -1 -1 -1 -0 -0 -0 -0 -0 -0 -1 -0 1 1 0 -0 -0 -0 -1 -1 -1 -1 -1 -0 0 1 1
2 3 3 3 3 4 4 4 4 3 3 3 3 3 2 2 1 1 -0 -1 -1 -0 -0 -0 -0 -0 -0 -1 0 1 1 0 -0 -0 -1 -1 -1 -0 -0 -0 -0 1 1 2
3 4 4 4 4 4 4 4 4 4 4 4 3 2 2 2 2 1 0 -0 -0 -0 -0 0 -0 -1 -1 -0 0 1 1 -0 -1 -1 -1 -0 -0 -0 0 0 0 1 1 1
4 4 5 5 5 4 4 4 5 5 4 4 3 2 2 2 2 1 1 0 0 0 0 0 -0 -0 -1 0 1 1 0 -0 -1 -1 -1 -0 -0 -1 -1 -0 0 0 0 0
5 5 5 5 5 5 5 5 5 5 4 4 3 2 2 2 2 2 1 1 1 1 1 1 0 -0 0 1 1 1 0 0 -0 -0 -0 -0 -0 -1 -1 -0 -0 -0 0 0
6 6 5 5 5 5 5 6 5 5 4 4 3 2 2 2 2 1 1 1 1 1 1 0 0 1 1 1 1 1 1 1 1 1 1 1 0 0 0 0 1 1 1 1
5 5 6 6 6 5 5 5 5 4 4 3 3 2 2 1 1 1 1 1 1 1 1 1 1 2 2 3 2 2 2 2 2 2 2 2 2 2 2 2 2 2 3 3
5 5 5 6 5 5 4 4 3 3 2 2 2 2 1 1 1 1 1 1 1 1 1 1 2 4 5 5 4 4 3 3 3 3 3 3 3 3 3 3 3 4 5 6
5 5 5 5 5 4 4 3 2 2 2 2 2 2 2 2 1 1 1 1 1 2 1 2 3 6 7 7 6 5 5 5 4 4 4 4 4 5 5 6 6 7 8 9
5 5 5 5 4 4 4 3 2 2 2 2 2 2 2 2 2 1 1 1 1 2 2 3 6 8 8 8 8 7 7 7 7 7 7 7 7 8 9 10 10 10 11 12
5 5 5 5 5 4 4 4 3 4 3 3 2 2 2 2 2 1 1 1 1 3 4 7 9 10 10 9 9 9 8 8 9 9 9 10 10 11 12 13 13 13 14 14
5 5 5 5 5 4 4 4 5 5 4 3 2 2 2 2 2 1 1 2 3 6 9 11 12 12 11 11 10 10 10 10 10 11 11 12 12 12 13 14 14 15 15 15
5 5 6 6 5 4 4 4 5 6 5 3 2 2 2 2 2 1 2 3 6 9 11 13 13 12 12 11 11 11 11 11 11 12 12 12 13 13 13 14 14 15 16 16